Tracking 20715 objects as of 27-May-2020
HD Live streaming from Space Station
objects crossing your sky now

COSMOS 2251 DEB

Track COSMOS 2251 DEB now!
10-day predictions


NORAD ID: 36058
Int'l Code: 1993-036AXV
Perigee: 700.4 km
Apogee: 777.2 km
Inclination: 74.0 °
Period: 99.4 minutes
Semi major axis: 7109 km
RCS: 0.0068 m2 (small)
Launch date: June 16, 1993
Source: Commonwealth of Independent States (former USSR) (CIS)
Launch site: PLESETSK MISSILE AND SPACE COMPLEX (PKMTR)

Note: This is SATELLITE DEBRIS
aabbcc
Your satellite tracking list
Your tracking list is empty




NASA's NSSDC Master Catalog

Two Line Element Set (TLE):
1 36058U 93036AXV 20147.61299062  .00000229  00000-0  67708-4 0  9997
2 36058  74.0270 249.1976 0054061 161.9079 198.4021 14.48164802588612
Source of the keplerian elements: AFSPC